SCP
0 0 0 0 0 0 0 0 0 0 0 0 0 0 0 0 0 0 0 0 0 0 0 0 0 0 0 0 0 0 0 0 0 0 0 0 0 1 1 1 1 2 3 2
0 0 0 0 0 0 0 0 0 0 0 0 0 0 0 0 0 0 0 0 0 0 0 0 0 0 0 0 0 0 0 0 0 0 0 0 0 0 0 0 1 2 2 2
0 0 0 0 0 0 0 0 0 0 0 0 0 0 0 0 0 0 0 0 0 0 0 0 0 0 0 0 0 0 0 0 0 0 0 1 1 2 2 1 1 1 1 2
0 0 0 0 0 0 0 0 0 0 0 0 0 0 0 0 0 0 0 0 0 0 0 0 0 0 0 0 0 0 0 0 0 0 0 1 1 1 0 1 1 1 1 1
0 0 0 0 0 0 0 0 0 0 0 0 0 0 0 0 0 0 0 0 0 0 0 0 0 0 0 0 0 0 0 1 1 0 0 0 0 1 1 0 1 1 1 1
0 0 0 0 0 0 0 0 0 0 0 -0 0 0 0 0 0 0 0 0 0 0 0 0 0 0 0 0 0 0 0 0 1 1 1 1 1 1 0 0 1 1 0 0
0 0 0 0 0 0 0 0 0 0 0 0 0 0 0 0 0 0 0 0 0 0 0 0 0 0 0 0 0 0 0 0 0 1 1 1 2 1 0 1 1 0 0 0
0 0 0 0 0 0 0 0 0 0 0 0 0 0 0 0 0 0 0 0 0 0 0 0 0 0 0 0 0 0 0 0 0 1 2 1 1 1 1 1 1 0 0 1
0 0 0 0 0 0 0 0 0 0 0 0 0 0 0 0 0 0 0 0 0 0 0 0 0 0 0 0 0 0 0 0 0 0 1 1 1 2 2 2 2 2 1 2
0 0 0 0 0 0 0 0 0 0 0 0 0 0 0 0 0 0 0 0 0 0 0 0 0 0 0 0 0 0 0 0 0 0 0 1 1 1 1 1 1 1 1 0
0 0 0 0 0 0 0 0 0 0 0 0 0 0 0 0 0 0 0 0 0 0 0 0 0 0 0 0 0 0 0 0 0 0 0 0 0 0 0 1 0 0 0 0
0 0 0 0 0 0 0 0 0 0 0 0 0 0 0 0 0 0 0 0 0 0 0 0 0 0 0 0 0 0 0 0 0 0 0 0 0 0 0 0 0 0 0 0
0 0 0 0 0 0 0 0 0 0 0 0 0 0 0 0 0 0 0 0 0 0 0 0 0 0 0 0 0 0 0 0 -0 0 0 0 0 0 0 0 0 0 0 0
0 0 0 0 0 0 0 0 0 0 0 0 0 0 0 0 0 0 0 0 0 0 0 0 0 0 0 0 0 0 0 -0 0 -0 0 0 0 0 0 0 0 0 0 0
0 0 0 0 0 0 0 0 0 0 0 0 0 0 -0 0 0 -0 0 0 0 0 0 0 0 0 0 -0 -0 -0 -0 0 0 0 0 0 0 0 0 0 0 0 0 0
0 0 0 0 0 0 0 0 0 0 0 0 0 0 0 0 0 0 0 0 0 0 0 0 0 0 -0 -0 0 0 0 -0 0 0 0 0 0 -0 -0 0 0 0 0 0
0 0 0 0 0 0 0 0 0 0 0 0 0 0 0 0 0 0 0 0 0 0 0 -0 0 -0 0 0 0 -0 -0 0 -0 0 0 0 0 0 0 0 0 0 0 0
0 0 0 0 0 0 0 0 0 0 0 0 0 0 0 0 0 0 0 0 0 0 -0 -0 -0 -0 0 0 0 -0 -0 0 0 0 0 0 0 0 0 0 0 0 0 0
0 0 0 0 0 0 0 0 0 0 0 0 0 0 0 0 -0 -0 0 0 -0 -0 -0 -0 -0 -0 -0 -0 -0 -0 -0 -0 0 0 -0 0 0 0 0 0 0 0 0 0
0 0 0 0 0 0 0 0 0 0 0 0 0 0 0 0 -0 -0 -0 -0 -0 -0 -0 -0 -0 -0 -0 -0 -0 0 -0 -0 0 0 0 0 0 0 0 0 0 0 0 0
0 0 0 0 0 0 0 0 0 0 0 0 0 -0 -0 -0 0 -0 -0 -0 -0 -0 -0 -0 -0 -0 -0 -0 -0 0 0 0 0 0 0 0 0 0 0 0 0 0 0 0
0 0 0 0 0 0 0 0 0 0 0 0 0 -0 -0 -0 -0 -0 -0 -0 -0 -0 0 0 -0 -0 0 -0 -0 0 0 0 0 0 0 0 0 0 0 0 0 0 0 0
0 0 0 0 0 0 0 0 0 0 -0 0 0 -0 -0 -0 -0 -0 -0 -0 0 -0 -0 -0 0 0 0 0 0 0 0 0 0 0 -0 -0 -0 -0 -0 0 0 0 -0 0
0 0 0 0 0 0 0 0 0 0 0 0 0 0 0 0 -0 -0 0 -0 -0 -0 -0 -0 -0 -0 -0 0 0 0 0 0 0 -0 0 0 -0 -0 -0 -0 0 -0 0 -0
0 0 0 0 0 0 0 0 0 0 0 0 0 0 0 0 0 0 -0 0 0 0 0 0 0 -0 0 0 0 -0 0 0 0 0 0 0 -0 -0 0 0 0 -0 -0 0
0 0 0 0 0 0 0 0 0 0 0 0 0 0 0 0 0 0 -0 -0 -0 -0 0 0 0 0 0 0 0 0 0 0 0 0 0 0 -0 0 0 0 0 -0 0 0
Wind_Speed_500mb
6 6 14 13 10 9 14 21 27 23 21 22 25 36 35 41 24 13 7 10 14 17 20 23 27 32 36 38 40 41 47 51 53 52 45 44 45 45 43 41 40 39 37 35
11 12 10 6 8 16 19 23 23 21 11 27 33 48 38 22 3 3 6 10 15 20 23 28 32 36 39 42 46 44 43 48 46 43 45 45 42 47 42 36 33 36 38 39
13 10 4 7 18 22 21 21 25 27 34 34 31 39 4 14 9 6 3 9 15 18 23 29 34 38 42 47 50 53 48 40 37 41 40 36 35 37 36 33 32 33 38 39
8 7 10 17 23 17 27 15 18 30 32 30 33 19 21 10 16 13 9 13 15 19 24 28 33 37 42 47 49 51 54 47 32 25 27 37 40 44 42 34 25 25 35 31
9 12 20 23 15 12 22 18 29 35 41 32 32 13 10 7 19 22 11 13 12 19 24 29 31 35 38 43 50 51 55 52 43 25 21 26 32 36 32 30 22 27 32 37
21 8 11 10 7 9 18 26 42 23 16 20 13 12 15 10 13 20 25 11 12 18 29 33 33 34 38 38 40 46 55 55 53 39 16 17 23 32 32 31 30 34 35 35
17 3 4 9 16 13 16 28 18 13 16 20 6 19 27 32 18 19 16 13 11 24 35 39 41 39 37 37 39 39 42 52 54 47 26 11 17 26 28 22 24 29 33 34
6 6 1 6 16 23 29 13 14 23 26 37 36 17 10 9 11 10 8 11 19 32 42 45 45 38 35 34 35 38 36 38 47 50 37 22 11 14 14 12 15 24 28 32
14 8 8 22 24 19 5 14 15 25 36 33 25 23 22 10 10 12 18 13 26 35 46 48 44 32 29 29 30 33 30 30 37 50 46 26 22 18 11 9 10 15 19 25
8 18 8 5 14 26 22 18 15 14 15 29 29 44 31 16 25 11 23 20 31 38 36 35 34 28 30 23 30 25 28 22 27 47 49 38 27 29 23 15 18 24 33 39
16 9 9 22 18 24 19 22 22 20 17 28 32 18 35 44 37 23 23 31 49 32 26 25 27 27 27 23 26 35 21 28 26 36 48 39 35 31 28 29 32 36 35 33
11 12 22 34 24 7 14 18 20 17 28 24 28 37 45 23 36 18 22 37 44 30 19 23 25 27 31 31 31 32 32 26 30 29 48 42 40 39 38 37 38 39 39 35
9 8 16 14 12 12 14 19 26 30 26 35 29 31 37 35 18 38 46 36 47 16 18 25 28 32 34 35 36 35 31 31 28 39 49 43 38 38 37 35 36 48 40 33
10 9 20 21 32 29 34 33 28 27 18 34 38 47 44 31 35 41 37 30 43 26 22 28 34 35 39 40 39 37 35 29 29 27 42 36 37 37 36 35 43 44 37 32
7 15 25 30 32 33 37 38 32 33 34 30 44 42 37 26 22 37 37 28 23 32 35 39 42 42 51 56 50 43 36 32 27 27 30 28 37 35 34 32 34 36 32 29
7 8 18 29 32 21 33 40 37 28 22 30 33 34 14 24 27 30 35 38 43 48 50 52 47 55 64 55 48 35 35 39 34 26 26 27 31 30 29 25 29 31 24 21
4 7 10 15 14 34 23 9 7 21 26 19 29 28 30 24 28 40 45 50 56 48 45 54 58 65 60 45 41 40 41 36 34 27 23 23 25 28 21 20 22 18 12 11
8 3 9 11 21 7 6 20 22 18 23 26 29 25 21 34 53 62 59 48 45 56 56 62 62 58 47 48 45 41 34 30 24 22 19 20 18 23 16 13 8 3 8 19
28 10 4 6 13 35 33 5 10 21 34 35 11 21 43 58 61 58 45 52 63 59 62 55 51 56 51 47 38 32 27 23 17 16 16 15 18 14 13 5 4 16 21 30
20 13 9 12 9 9 14 5 12 31 32 13 26 44 51 55 29 31 66 66 64 59 53 53 59 56 48 42 35 27 22 18 15 11 11 15 11 11 8 9 20 28 30 35
17 16 21 18 15 20 18 5 22 16 9 49 53 54 59 39 57 77 79 71 64 50 58 70 47 55 50 42 32 25 20 18 11 12 19 9 7 12 16 24 33 34 39 43
10 8 9 10 13 15 10 21 18 28 52 54 49 66 66 74 74 76 73 70 65 75 60 51 61 48 47 34 28 25 18 13 13 22 8 9 19 25 30 36 41 40 42 45
10 16 6 10 12 42 58 51 50 46 55 51 61 63 71 71 72 78 80 65 53 62 64 55 36 45 25 28 20 19 18 19 23 14 15 24 30 39 43 44 48 56 52 49
20 24 16 22 16 33 55 56 48 34 58 71 58 68 65 65 73 77 67 81 62 52 47 43 45 41 28 11 15 23 25 26 23 21 29 39 49 52 51 54 53 50 42 45
21 20 24 32 43 44 38 46 57 59 55 57 64 59 63 70 69 69 69 67 61 58 47 38 27 19 14 21 29 32 31 28 24 36 49 57 58 60 61 52 45 46 47 44
30 30 19 20 41 42 53 56 56 50 58 63 58 65 61 60 62 59 65 64 59 52 39 29 18 19 27 38 39 40 36 27 42 53 65 66 66 69 66 56 65 56 56 52
Wind_Direction_500mb
87 220 48 42 30 352 314 307 304 309 339 311 302 298 300 303 294 259 314 340 2 2 356 358 1 359 356 351 340 320 301 294 287 267 249 244 241 237 234 240 244 242 248 251
223 87 69 18 335 319 311 301 303 313 322 316 304 299 296 297 278 249 331 348 351 350 352 356 358 359 360 357 354 344 327 304 289 265 244 237 242 237 238 238 243 247 255 261
313 76 105 305 318 315 309 308 320 315 313 287 288 290 239 173 228 186 335 331 341 350 350 353 355 356 357 358 357 354 346 330 300 273 239 231 229 224 227 230 240 253 254 248
287 75 269 301 302 315 302 16 301 296 305 303 317 291 255 199 216 219 304 320 337 344 339 339 341 346 350 355 356 358 358 352 333 277 234 225 231 231 232 232 235 245 253 249
23 293 301 299 333 313 305 319 294 290 295 294 278 239 91 142 238 221 353 326 329 349 347 343 337 336 338 345 352 357 1 2 356 317 236 232 234 229 217 209 225 265 250 258
282 316 279 330 302 288 313 289 294 274 264 259 77 279 296 324 250 285 318 319 317 336 337 336 332 328 332 332 344 351 359 1 7 360 324 246 231 225 211 208 245 264 248 264
311 244 153 272 283 204 260 315 314 292 268 299 85 271 273 297 314 287 306 321 312 327 326 328 328 326 324 330 338 344 350 357 5 7 0 308 244 237 239 239 248 245 256 268
334 215 252 116 312 311 295 299 292 301 309 305 305 273 45 0 327 318 309 295 308 327 325 322 321 322 323 324 327 340 352 355 360 4 7 5 325 276 259 280 250 260 267 274
311 230 265 268 286 285 73 256 358 286 278 272 274 280 219 249 234 249 276 314 324 329 324 323 316 313 324 337 334 341 341 349 11 358 358 357 9 8 3 332 298 280 289 291
354 294 301 30 290 255 250 334 284 259 296 298 306 306 294 6 330 266 315 321 321 320 327 337 337 322 322 324 357 328 353 336 11 2 353 352 354 360 359 352 325 317 315 313
307 254 277 275 271 301 280 249 234 260 284 288 296 286 332 327 306 312 299 323 321 322 313 323 336 336 339 344 337 353 324 336 331 341 340 347 355 353 354 353 343 328 322 324
14 296 286 289 310 345 257 278 295 277 285 290 292 282 287 338 344 282 345 299 314 303 312 320 320 324 328 336 339 332 330 354 304 323 325 336 344 345 352 353 343 335 331 324
358 269 304 293 156 168 244 298 296 281 285 276 278 280 300 320 235 304 337 341 324 288 307 312 318 319 320 321 322 326 321 308 319 298 312 321 332 340 347 346 344 338 336 325
231 258 243 269 304 312 292 288 283 279 271 279 275 296 306 316 342 328 337 327 314 321 320 314 312 318 320 317 316 316 320 312 295 293 300 315 324 339 338 339 336 339 334 326
281 257 271 275 287 286 284 285 284 277 278 275 288 289 309 344 336 313 318 297 301 292 307 316 317 317 317 313 304 301 302 308 305 306 301 318 323 339 333 331 333 333 331 323
284 275 290 286 277 285 291 286 278 270 268 284 297 299 352 325 316 326 325 321 309 308 306 311 313 314 316 313 306 306 296 297 298 300 306 323 321 329 334 333 328 336 324 325
276 286 298 274 337 311 285 312 314 300 286 307 302 303 328 323 316 319 312 309 306 306 310 306 311 313 311 310 305 302 297 296 290 287 299 316 321 318 330 324 327 323 333 356
166 225 276 294 307 265 56 313 293 291 288 292 299 334 331 321 315 314 309 325 320 315 315 309 306 307 304 303 301 302 301 297 288 278 285 306 309 321 310 301 312 343 87 98
215 227 292 267 291 278 267 116 345 326 302 290 345 320 313 318 317 305 310 310 304 309 307 305 305 302 300 302 300 297 298 295 292 268 265 286 302 297 272 263 142 117 112 107
196 241 240 295 282 282 49 150 329 309 291 81 333 323 323 323 303 301 312 307 300 305 306 304 303 305 300 301 299 295 291 284 272 268 248 272 283 260 206 154 123 120 113 108
204 214 234 245 237 270 301 9 308 287 330 322 325 314 311 309 297 302 308 306 305 302 300 303 297 297 295 299 288 289 275 274 249 250 235 265 225 171 144 123 123 115 109 105
250 273 240 243 264 279 38 307 320 303 306 308 314 308 310 304 303 307 307 306 303 304 298 296 297 289 294 287 274 280 251 231 187 213 216 171 147 137 125 122 114 110 106 92
256 221 269 243 266 313 309 300 304 307 299 310 302 306 307 302 304 308 306 304 305 302 297 294 285 295 276 260 263 214 200 176 179 195 162 141 134 127 122 117 108 97 90 90
263 257 253 280 264 285 302 303 305 312 310 295 295 302 301 302 305 307 301 307 304 301 296 292 291 283 279 246 186 175 171 171 183 167 143 135 130 127 120 109 96 91 90 91
263 286 268 274 287 295 297 305 309 306 302 306 303 306 309 304 303 303 306 306 304 301 301 294 282 262 222 173 166 162 164 170 167 148 137 134 126 122 112 106 97 96 101 96
250 260 264 269 298 301 302 311 310 308 307 306 314 311 310 306 304 307 308 308 309 308 300 294 266 216 178 166 164 161 166 167 156 137 140 130 125 119 109 100 100 98 100 97
Wind_Speed_850mb
6 6 14 13 10 9 14 21 27 23 21 22 25 36 35 41 24 13 7 10 14 17 20 23 27 32 36 38 40 41 47 51 53 52 45 44 45 45 43 41 40 39 37 35
11 12 10 6 8 16 19 23 23 21 11 27 33 48 38 22 3 3 6 10 15 20 23 28 32 36 39 42 46 44 43 48 46 43 45 45 42 47 42 36 33 36 38 39
13 10 4 7 18 22 21 21 25 27 34 34 31 39 4 14 9 6 3 9 15 18 23 29 34 38 42 47 50 53 48 40 37 41 40 36 35 37 36 33 32 33 38 39
8 7 10 17 23 17 27 15 18 30 32 30 33 19 21 10 16 13 9 13 15 19 24 28 33 37 42 47 49 51 54 47 32 25 27 37 40 44 42 34 25 25 35 31
9 12 20 23 15 12 22 18 29 35 41 32 32 13 10 7 19 22 11 13 12 19 24 29 31 35 38 43 50 51 55 52 43 25 21 26 32 36 32 30 22 27 32 37
21 8 11 10 7 9 18 26 42 23 16 20 13 12 15 10 13 20 25 11 12 18 29 33 33 34 38 38 40 46 55 55 53 39 16 17 23 32 32 31 30 34 35 35
17 3 4 9 16 13 16 28 18 13 16 20 6 19 27 32 18 19 16 13 11 24 35 39 41 39 37 37 39 39 42 52 54 47 26 11 17 26 28 22 24 29 33 34
6 6 1 6 16 23 29 13 14 23 26 37 36 17 10 9 11 10 8 11 19 32 42 45 45 38 35 34 35 38 36 38 47 50 37 22 11 14 14 12 15 24 28 32
14 8 8 22 24 19 5 14 15 25 36 33 25 23 22 10 10 12 18 13 26 35 46 48 44 32 29 29 30 33 30 30 37 50 46 26 22 18 11 9 10 15 19 25
8 18 8 5 14 26 22 18 15 14 15 29 29 44 31 16 25 11 23 20 31 38 36 35 34 28 30 23 30 25 28 22 27 47 49 38 27 29 23 15 18 24 33 39
16 9 9 22 18 24 19 22 22 20 17 28 32 18 35 44 37 23 23 31 49 32 26 25 27 27 27 23 26 35 21 28 26 36 48 39 35 31 28 29 32 36 35 33
11 12 22 34 24 7 14 18 20 17 28 24 28 37 45 23 36 18 22 37 44 30 19 23 25 27 31 31 31 32 32 26 30 29 48 42 40 39 38 37 38 39 39 35
9 8 16 14 12 12 14 19 26 30 26 35 29 31 37 35 18 38 46 36 47 16 18 25 28 32 34 35 36 35 31 31 28 39 49 43 38 38 37 35 36 48 40 33
10 9 20 21 32 29 34 33 28 27 18 34 38 47 44 31 35 41 37 30 43 26 22 28 34 35 39 40 39 37 35 29 29 27 42 36 37 37 36 35 43 44 37 32
7 15 25 30 32 33 37 38 32 33 34 30 44 42 37 26 22 37 37 28 23 32 35 39 42 42 51 56 50 43 36 32 27 27 30 28 37 35 34 32 34 36 32 29
7 8 18 29 32 21 33 40 37 28 22 30 33 34 14 24 27 30 35 38 43 48 50 52 47 55 64 55 48 35 35 39 34 26 26 27 31 30 29 25 29 31 24 21
4 7 10 15 14 34 23 9 7 21 26 19 29 28 30 24 28 40 45 50 56 48 45 54 58 65 60 45 41 40 41 36 34 27 23 23 25 28 21 20 22 18 12 11
8 3 9 11 21 7 6 20 22 18 23 26 29 25 21 34 53 62 59 48 45 56 56 62 62 58 47 48 45 41 34 30 24 22 19 20 18 23 16 13 8 3 8 19
28 10 4 6 13 35 33 5 10 21 34 35 11 21 43 58 61 58 45 52 63 59 62 55 51 56 51 47 38 32 27 23 17 16 16 15 18 14 13 5 4 16 21 30
20 13 9 12 9 9 14 5 12 31 32 13 26 44 51 55 29 31 66 66 64 59 53 53 59 56 48 42 35 27 22 18 15 11 11 15 11 11 8 9 20 28 30 35
17 16 21 18 15 20 18 5 22 16 9 49 53 54 59 39 57 77 79 71 64 50 58 70 47 55 50 42 32 25 20 18 11 12 19 9 7 12 16 24 33 34 39 43
10 8 9 10 13 15 10 21 18 28 52 54 49 66 66 74 74 76 73 70 65 75 60 51 61 48 47 34 28 25 18 13 13 22 8 9 19 25 30 36 41 40 42 45
10 16 6 10 12 42 58 51 50 46 55 51 61 63 71 71 72 78 80 65 53 62 64 55 36 45 25 28 20 19 18 19 23 14 15 24 30 39 43 44 48 56 52 49
20 24 16 22 16 33 55 56 48 34 58 71 58 68 65 65 73 77 67 81 62 52 47 43 45 41 28 11 15 23 25 26 23 21 29 39 49 52 51 54 53 50 42 45
21 20 24 32 43 44 38 46 57 59 55 57 64 59 63 70 69 69 69 67 61 58 47 38 27 19 14 21 29 32 31 28 24 36 49 57 58 60 61 52 45 46 47 44
30 30 19 20 41 42 53 56 56 50 58 63 58 65 61 60 62 59 65 64 59 52 39 29 18 19 27 38 39 40 36 27 42 53 65 66 66 69 66 56 65 56 56 52
Wind_Direction_850mb
87 220 48 42 30 352 314 307 304 309 339 311 302 298 300 303 294 259 314 340 2 2 356 358 1 359 356 351 340 320 301 294 287 267 249 244 241 237 234 240 244 242 248 251
223 87 69 18 335 319 311 301 303 313 322 316 304 299 296 297 278 249 331 348 351 350 352 356 358 359 360 357 354 344 327 304 289 265 244 237 242 237 238 238 243 247 255 261
313 76 105 305 318 315 309 308 320 315 313 287 288 290 239 173 228 186 335 331 341 350 350 353 355 356 357 358 357 354 346 330 300 273 239 231 229 224 227 230 240 253 254 248
287 75 269 301 302 315 302 16 301 296 305 303 317 291 255 199 216 219 304 320 337 344 339 339 341 346 350 355 356 358 358 352 333 277 234 225 231 231 232 232 235 245 253 249
23 293 301 299 333 313 305 319 294 290 295 294 278 239 91 142 238 221 353 326 329 349 347 343 337 336 338 345 352 357 1 2 356 317 236 232 234 229 217 209 225 265 250 258
282 316 279 330 302 288 313 289 294 274 264 259 77 279 296 324 250 285 318 319 317 336 337 336 332 328 332 332 344 351 359 1 7 360 324 246 231 225 211 208 245 264 248 264
311 244 153 272 283 204 260 315 314 292 268 299 85 271 273 297 314 287 306 321 312 327 326 328 328 326 324 330 338 344 350 357 5 7 0 308 244 237 239 239 248 245 256 268
334 215 252 116 312 311 295 299 292 301 309 305 305 273 45 0 327 318 309 295 308 327 325 322 321 322 323 324 327 340 352 355 360 4 7 5 325 276 259 280 250 260 267 274
311 230 265 268 286 285 73 256 358 286 278 272 274 280 219 249 234 249 276 314 324 329 324 323 316 313 324 337 334 341 341 349 11 358 358 357 9 8 3 332 298 280 289 291
354 294 301 30 290 255 250 334 284 259 296 298 306 306 294 6 330 266 315 321 321 320 327 337 337 322 322 324 357 328 353 336 11 2 353 352 354 360 359 352 325 317 315 313
307 254 277 275 271 301 280 249 234 260 284 288 296 286 332 327 306 312 299 323 321 322 313 323 336 336 339 344 337 353 324 336 331 341 340 347 355 353 354 353 343 328 322 324
14 296 286 289 310 345 257 278 295 277 285 290 292 282 287 338 344 282 345 299 314 303 312 320 320 324 328 336 339 332 330 354 304 323 325 336 344 345 352 353 343 335 331 324
358 269 304 293 156 168 244 298 296 281 285 276 278 280 300 320 235 304 337 341 324 288 307 312 318 319 320 321 322 326 321 308 319 298 312 321 332 340 347 346 344 338 336 325
231 258 243 269 304 312 292 288 283 279 271 279 275 296 306 316 342 328 337 327 314 321 320 314 312 318 320 317 316 316 320 312 295 293 300 315 324 339 338 339 336 339 334 326
281 257 271 275 287 286 284 285 284 277 278 275 288 289 309 344 336 313 318 297 301 292 307 316 317 317 317 313 304 301 302 308 305 306 301 318 323 339 333 331 333 333 331 323
284 275 290 286 277 285 291 286 278 270 268 284 297 299 352 325 316 326 325 321 309 308 306 311 313 314 316 313 306 306 296 297 298 300 306 323 321 329 334 333 328 336 324 325
276 286 298 274 337 311 285 312 314 300 286 307 302 303 328 323 316 319 312 309 306 306 310 306 311 313 311 310 305 302 297 296 290 287 299 316 321 318 330 324 327 323 333 356
166 225 276 294 307 265 56 313 293 291 288 292 299 334 331 321 315 314 309 325 320 315 315 309 306 307 304 303 301 302 301 297 288 278 285 306 309 321 310 301 312 343 87 98
215 227 292 267 291 278 267 116 345 326 302 290 345 320 313 318 317 305 310 310 304 309 307 305 305 302 300 302 300 297 298 295 292 268 265 286 302 297 272 263 142 117 112 107
196 241 240 295 282 282 49 150 329 309 291 81 333 323 323 323 303 301 312 307 300 305 306 304 303 305 300 301 299 295 291 284 272 268 248 272 283 260 206 154 123 120 113 108
204 214 234 245 237 270 301 9 308 287 330 322 325 314 311 309 297 302 308 306 305 302 300 303 297 297 295 299 288 289 275 274 249 250 235 265 225 171 144 123 123 115 109 105
250 273 240 243 264 279 38 307 320 303 306 308 314 308 310 304 303 307 307 306 303 304 298 296 297 289 294 287 274 280 251 231 187 213 216 171 147 137 125 122 114 110 106 92
256 221 269 243 266 313 309 300 304 307 299 310 302 306 307 302 304 308 306 304 305 302 297 294 285 295 276 260 263 214 200 176 179 195 162 141 134 127 122 117 108 97 90 90
263 257 253 280 264 285 302 303 305 312 310 295 295 302 301 302 305 307 301 307 304 301 296 292 291 283 279 246 186 175 171 171 183 167 143 135 130 127 120 109 96 91 90 91
263 286 268 274 287 295 297 305 309 306 302 306 303 306 309 304 303 303 306 306 304 301 301 294 282 262 222 173 166 162 164 170 167 148 137 134 126 122 112 106 97 96 101 96
250 260 264 269 298 301 302 311 310 308 307 306 314 311 310 306 304 307 308 308 309 308 300 294 266 216 178 166 164 161 166 167 156 137 140 130 125 119 109 100 100 98 100 97